[[{"header":{"parameterUnit":"m.s-1","parameterCategory":2,"la1":30.2991,"la2":30.254,"lo1":-89.0895,"lo2":-89.0444,"dy":0.0017,"dx":0.0017,"nx":28,"ny":28,"refTime":"2024-08-17T03:00:00:Z","depth":"0","parameterNumber":2,"parameterNumberName":"U-component_of_CURRENTS"},"data":[0,0,0,0,0,0,0,0,0,0,0,0,0,0,0,0,0,0,0,0,0,0,0,0,0,0,0,0,0,0,0,0,0,0,0,0,0,0,0,0,0,0,0,0,0,0,0,0,0,0,0,0,0,0,0,0,0,0,0.3326,0.3327,0,0.3392,0.3392,0.3393,0.339,0.3389,0.3389,0.3388,0.34,0.3401,0.3402,0,0,0,0,0,0,0,0,0,0,0,0,0,0.3188,0.3191,0.3326,0.3327,0.3328,0.3392,0.3392,0.3393,0.339,0.3389,0.3389,0.3388,0.34,0.3401,0.3402,0,0,0,0,0,0,0,0,0,0,0,0,0,0.3247,0.3191,0.3325,0.3337,0.334,0.3392,0.3392,0.3393,0.339,0.3389,0.3388,0.3388,0.34,0.3401,0.3402,0.3426,0,0,0.3406,0.3407,0,0,0,0,0,0,0,0,0.3243,0.3251,0.3334,0.3337,0.3339,0.3386,0.3349,0.3403,0.339,0.3366,0.3388,0.3387,0.3394,0.3396,0.3404,0.3427,0.3427,0.3406,0.3407,0.3407,0.3408,0,0,0,0,0,0,0,0.3239,0.3248,0.3347,0.3336,0.3339,0.3337,0.3344,0.3359,0.3379,0.3368,0.3369,0.3384,0.3394,0.3403,0.3405,0.3427,0.3406,0.3407,0.3408,0.3408,0.3535,0.3537,0,0,0,0,0,0,0.3242,0.3245,0.3345,0.335,0.3293,0.3341,0.3348,0.3368,0.338,0.3383,0.3385,0.3384,0.3402,0.3403,0.3405,0.3476,0.3407,0.3409,0.3409,0.3532,0.3535,0.3538,0,0,0,0,0,0,0.3239,0.325,0.3343,0.3301,0.3314,0.3344,0.3366,0.337,0.3379,0.3394,0.3395,0.3391,0.3401,0.3403,0.343,0.3474,0.3409,0.341,0.3529,0.3533,0.3537,0.359,0,0,0,0,0,0,0.3234,0.3249,0.3261,0.3302,0.3316,0.3384,0.3368,0.3372,0.3392,0.3391,0.34,0.3401,0.3401,0.3428,0.3431,0.3475,0.3411,0.3526,0.3531,0.3535,0.3585,0.3595,0.3604,0,0,0,0,0,0.3229,0.3253,0.3261,0.3274,0.3334,0.3386,0.3393,0.3408,0.3393,0.341,0.3415,0.34,0.3462,0.3431,0.3434,0.3479,0.3523,0.3529,0.3535,0.3581,0.3593,0.3604,0,0,0,0,0,0,0.3212,0.3256,0.3266,0.3306,0.3348,0.3387,0.3407,0.3411,0.3429,0.3423,0.342,0.3423,0.3482,0.3469,0.3434,0.3534,0.3496,0.3503,0.353,0.3542,0.3551,0.3622,0.3412,0,0,0,0,0,0.3213,0.3233,0.3286,0.3318,0.3341,0.3372,0.3392,0.3406,0.343,0.3435,0.3442,0.3461,0.3511,0.3512,0.3553,0.358,0.3631,0.3618,0.3628,0.3636,0.3699,0.3817,0.3844,0.3557,0.3557,0.3557,0,0,0.3215,0.3244,0.3256,0.3314,0.3345,0.3386,0.3381,0.3421,0.3457,0.3435,0.3474,0.3503,0.3533,0.359,0.3612,0.3575,0.3734,0.3643,0.3649,0.371,0.3826,0.3854,0.3879,0.3561,0.3561,0.356,0,0,0.3228,0.3259,0.3277,0.3315,0.3368,0.3398,0.341,0.3454,0.3478,0.3519,0.3538,0.3604,0.3618,0.3683,0.3709,0.3797,0.3801,0.3784,0.3864,0.3976,0.4001,0.4024,0.4079,0.4107,0.3764,0.3764,0.3764,0,0.3222,0.327,0.3294,0.3328,0.3372,0.3403,0.345,0.3483,0.3528,0.3578,0.3538,0.3674,0.3688,0.3814,0.3848,0.3826,0.3862,0.3806,0.399,0.4014,0.4037,0.4088,0.4118,0.3767,0.3767,0.3766,0.3766,0,0.3252,0.3295,0.3317,0.3371,0.3415,0.3468,0.3525,0.3572,0.3595,0.3642,0.3767,0.3805,0.3893,0.3902,0.3899,0.407,0.4033,0.4004,0.3959,0.4069,0.4115,0.4145,0.3772,0.377,0.3769,0.3769,0,0,0.3234,0.3319,0.3329,0.3381,0.3451,0.3504,0.3575,0.3685,0.3768,0.3809,0.3935,0.403,0.4065,0.4106,0.4117,0.421,0.4376,0.4171,0.4175,0.4224,0.4589,0.4468,0.4488,0.4364,0.4371,0.4376,0.454,0,0.3259,0.3344,0.3373,0.347,0.3537,0.3596,0.3673,0.3768,0.3846,0.3968,0.4056,0.4171,0.4131,0.4186,0.4281,0.4383,0.4467,0.4334,0.4481,0.4486,0.4364,0.4525,0.4321,0.4444,0.4569,0.4574,0.4578,0,0.3293,0.3353,0.3451,0.3574,0.3606,0.3656,0.3826,0.3898,0.4065,0.413,0.4257,0.4316,0.4493,0.4424,0.4653,0.4561,0.4602,0.4651,0.4657,0.4567,0.4425,0.4366,0.4494,0.4351,0.4624,0.4621,0.4617,0,0.3329,0.3421,0.3513,0.3551,0.3674,0.3735,0.3805,0.3957,0.4045,0.425,0.434,0.4521,0.4622,0.4742,0.4814,0.4756,0.5041,0.4959,0.4887,0.4875,0.4752,0.4719,0.4771,0.5142,0.5142,0.5142,0.5141,0,0.3385,0.3463,0.3535,0.3595,0.3702,0.3774,0.3908,0.4013,0.4166,0.4276,0.4425,0.4537,0.4713,0.4853,0.4905,0.4997,0.5107,0.4976,0.4949,0.4755,0.4721,0.4628,0.4557,0.5148,0.5146,0.5145,0.5144,0,0.3446,0.3491,0.3599,0.3704,0.3728,0.3814,0.3922,0.4006,0.4172,0.4323,0.439,0.4605,0.4782,0.4918,0.5122,0.5096,0.5057,0.519,0.4922,0.4861,0.4623,0.4561,0.4523,0.4391,0.5166,0.5165,0.5163,0,0.3503,0.3564,0.3658,0.3677,0.3718,0.3816,0.3855,0.3998,0.4065,0.4327,0.4382,0.4621,0.4727,0.499,0.504,0.5144,0.4994,0.498,0.4853,0.4649,0.4563,0.4401,0.4281,0.4694,0.4689,0.4685,0.4682,0,0.3591,0.3612,0.366,0.3683,0.3712,0.3768,0.383,0.3883,0.4036,0.4162,0.4307,0.4431,0.4677,0.4704,0.4854,0.4882,0.4723,0.4895,0.4789,0.4319,0.4051,0.3893,0.4507,0.4646,0.4649,0.4652,0.4654,0.4655,0.3617,0.3629,0.363,0.3642,0.3659,0.3658,0.3654,0.372,0.3796,0.3924,0.4128,0.4253,0.4409,0.4592,0.4578,0.4435,0.4462,0.4311,0.429,0.4174,0.3942,0.4453,0.4483,0.4485,0.4487,0.4489,0.4491,0,0.3572,0.3548,0.3568,0.353,0.3483,0.354,0.3558,0.3516,0.3512,0.3713,0.3826,0.3975,0.4004,0.408,0.4025,0.3873,0.3714,0.3768,0.3516,0.3457,0.4018,0.3888,0.3661,0.3661,0.3661,0.3661,0.3661,0.3661,0.3533,0.3473,0.3447,0.332,0.3296,0.3179,0.3156,0.314,0.3219,0.3268,0.3346,0.3519,0.3687,0.3709,0.3529,0.344,0.3184,0.3039,0.3058,0.3458,0.3506,0.3552,0.3415,0.3092,0.3091,0.2348,0.2342,0.2338]},{"header":{"parameterUnit":"m.s-1","parameterCategory":2,"la1":30.2991,"la2":30.254,"lo1":-89.0895,"lo2":-89.0444,"dy":0.0017,"dx":0.0017,"nx":28,"ny":28,"refTime":"2024-08-17T03:00:00:Z","depth":"0","parameterNumber":3,"parameterNumberName":"V-component_of_CURRENTS"},"data":[0,0,0,0,0,0,0,0,0,0,0,0,0,0,0,0,0,0,0,0,0,0,0,0,0,0,0,0,0,0,0,0,0,0,0,0,0,0,0,0,0,0,0,0,0,0,0,0,0,0,0,0,0,0,0,0,0,0,0.0108,0.0108,0,0.0062,0.0061,0.0061,0.0023,0.0023,0.0022,0.0022,-0.0055,-0.0056,-0.0058,0,0,0,0,0,0,0,0,0,0,0,0,0,0.0138,0.0138,0.0109,0.0108,0.0107,0.0062,0.0061,0.0061,0.0023,0.0023,0.0022,0.0021,-0.0054,-0.0056,-0.0058,0,0,0,0,0,0,0,0,0,0,0,0,0,0.0113,0.0138,0.0109,0.0081,0.0078,0.0062,0.0061,0.0061,0.0023,0.0023,0.0022,0.0021,-0.0054,-0.0056,-0.0058,-0.0055,0,0,-0.0065,-0.0066,0,0,0,0,0,0,0,0,0.0115,0.0113,0.0086,0.0083,0.008,0.0046,0.0044,0.002,0.0024,0.0046,0.0022,0.0021,-0.0024,-0.0029,-0.0033,-0.0059,-0.0062,-0.0065,-0.0067,-0.0068,-0.0068,0,0,0,0,0,0,0,0.0117,0.0114,0.0092,0.0085,0.0081,0.0062,0.0058,0.0039,0.0017,0.0044,0.0041,0.0033,-0.0026,-0.0031,-0.0035,-0.0063,-0.0065,-0.0067,-0.0069,-0.0069,-0.0043,-0.0041,0,0,0,0,0,0,0.0121,0.0116,0.0093,0.009,0.0093,0.0062,0.0058,0.0059,0.0018,0.001,0.0034,0.0031,-0.0026,-0.0032,-0.0038,0.0018,-0.0068,-0.007,-0.0071,-0.0045,-0.0043,-0.0041,0,0,0,0,0,0,0.0122,0.012,0.0095,0.01,0.0095,0.0063,0.0064,0.0059,0.0051,0.001,0.0002,0.0032,-0.0027,-0.0035,-0.004,0.0012,-0.0071,-0.0073,-0.0048,-0.0045,-0.0042,0.0094,0,0,0,0,0,0,0.0123,0.0121,0.0126,0.0101,0.0095,0.0096,0.0065,0.0058,0.0047,0.0043,0.0006,-0.0002,-0.0029,-0.0036,-0.0042,0.0007,-0.0075,-0.005,-0.0046,-0.0043,0.0087,0.0101,0.0113,0,0,0,0,0,0.0125,0.0138,0.0127,0.0124,0.0103,0.0096,0.0093,0.0067,0.0048,0.0055,0.0034,-0.0001,-0.0015,-0.0036,-0.0044,0.0006,-0.0052,-0.0048,-0.0043,0.0081,0.0098,0.0113,0,0,0,0,0,0,0.0155,0.0135,0.0122,0.0129,0.0116,0.0089,0.0093,0.0071,0.006,0.0059,0.0015,0.0007,0.0029,-0.0006,-0.0029,0.0026,-0.0036,-0.0032,0.0061,0.0077,0.009,0.016,-0.0076,0,0,0,0,0,0.0164,0.0171,0.0146,0.0154,0.015,0.0122,0.0115,0.01,0.0083,0.0077,0.0047,0.0032,0.0044,0.0039,0.0031,0.0049,0.0028,0.0079,0.0093,0.0104,0.0157,0.017,0.019,-0.0026,-0.0026,-0.0026,0,0,0.0175,0.0168,0.0169,0.0161,0.015,0.0173,0.0117,0.0117,0.015,0.0071,0.0099,0.0072,0.0059,0.0093,0.0099,0.0068,0.0145,0.011,0.0121,0.0168,0.0177,0.0198,0.0217,-0.0022,-0.0023,-0.0024,0,0,0.0217,0.02,0.0224,0.0223,0.0214,0.0207,0.0209,0.0185,0.0188,0.02,0.0175,0.019,0.0161,0.0193,0.0202,0.0283,0.0216,0.026,0.0385,0.0396,0.0415,0.0431,0.0392,0.0404,0.0266,0.0267,0.0267,0,0.0232,0.0272,0.023,0.0261,0.0288,0.0231,0.0286,0.0279,0.0257,0.0299,0.0225,0.0271,0.0232,0.0344,0.0365,0.0321,0.0288,0.0324,0.0416,0.0432,0.0446,0.0402,0.0414,0.0274,0.0273,0.0272,0.0271,0,0.03,0.0334,0.0352,0.0385,0.0401,0.0437,0.0431,0.0452,0.0435,0.0439,0.0511,0.0463,0.0506,0.0485,0.0444,0.055,0.0477,0.043,0.0379,0.0477,0.0423,0.0432,0.0284,0.0281,0.0279,0.0277,0,0,0.0354,0.0395,0.0408,0.0474,0.0484,0.0525,0.0583,0.0659,0.0747,0.0695,0.0813,0.0805,0.0775,0.0785,0.0737,0.0737,0.0769,0.0628,0.0625,0.0598,0.0754,0.0705,0.0709,0.0725,0.0728,0.0731,0.0662,0,0.0439,0.055,0.0539,0.0672,0.0748,0.074,0.0821,0.0874,0.0892,0.0974,0.0953,0.102,0.089,0.0918,0.0903,0.0824,0.0807,0.0791,0.066,0.0657,0.0609,0.0725,0.0647,0.0581,0.067,0.0672,0.0673,0,0.0543,0.0611,0.0756,0.0888,0.092,0.0983,0.1151,0.1207,0.1288,0.1304,0.1348,0.1305,0.1339,0.1186,0.1111,0.1098,0.0952,0.0854,0.0848,0.0779,0.0629,0.0506,0.0594,0.0369,0.0686,0.0685,0.0684,0,0.0686,0.0789,0.0932,0.0968,0.1078,0.1167,0.123,0.1328,0.142,0.1522,0.1596,0.1589,0.1607,0.1458,0.1232,0.1176,0.111,0.1002,0.0821,0.0811,0.0717,0.0696,0.0593,0.0953,0.0953,0.0954,0.0954,0,0.0831,0.0952,0.1014,0.1102,0.1286,0.1314,0.1509,0.1572,0.1683,0.1822,0.1778,0.1885,0.1674,0.1589,0.1343,0.113,0.1192,0.0894,0.0826,0.0755,0.0739,0.0515,0.0399,0.0951,0.0952,0.0952,0.0953,0,0.0995,0.103,0.1198,0.1319,0.1364,0.1502,0.1644,0.1774,0.1872,0.2051,0.2094,0.2122,0.203,0.1781,0.1547,0.1298,0.0942,0.097,0.088,0.0805,0.043,0.0326,0.0204,0.012,0.0783,0.0782,0.0781,0,0.1096,0.12,0.1344,0.1422,0.1481,0.1647,0.1756,0.1864,0.199,0.2199,0.2301,0.23,0.2309,0.1968,0.1536,0.1138,0.0919,0.0801,0.0704,0.0456,0.0288,0.0218,0.0153,0.0592,0.0589,0.0587,0.0586,0,0.1264,0.1307,0.1409,0.1567,0.1689,0.1842,0.1997,0.2123,0.2268,0.2426,0.2612,0.265,0.2359,0.1976,0.1454,0.1145,0.0648,0.075,0.0532,0.02,0.0083,-0.0047,0.0549,0.0569,0.057,0.0572,0.0573,0.0573,0.1349,0.1437,0.1536,0.1697,0.1831,0.2005,0.2143,0.2303,0.2512,0.2747,0.279,0.2889,0.2327,0.1632,0.1249,0.0459,0.0519,0.0194,0.0101,0.0064,-0.0032,0.0526,0.0453,0.0454,0.0455,0.0456,0.0457,0,0.141,0.1494,0.1648,0.1819,0.1974,0.204,0.2276,0.2417,0.2649,0.2854,0.2999,0.2745,0.2067,0.1395,0.0339,-0.0124,-0.0287,-0.0375,-0.0515,-0.0539,-0.0029,-0.0054,-0.0284,-0.0283,-0.0283,-0.0283,-0.0283,-0.0282,0.1434,0.1559,0.1645,0.1887,0.2021,0.2227,0.2362,0.2586,0.2769,0.2969,0.3006,0.3011,0.2368,0.0649,-0.0501,-0.0737,-0.0984,-0.1073,-0.1142,-0.0856,-0.0811,-0.0768,-0.0818,-0.1204,-0.1205,-0.1637,-0.1642,-0.1646]}],[{"header":{"parameterUnit":"m.s-1","parameterCategory":2,"la1":30.2991,"la2":30.254,"lo1":-89.0895,"lo2":-89.0444,"dy":0.0017,"dx":0.0017,"nx":28,"ny":28,"refTime":"2024-08-17T03:00:00:Z","depth":"2","parameterNumber":2,"parameterNumberName":"U-component_of_CURRENTS"},"data":[0,0,0,0,0,0,0,0,0,0,0,0,0,0,0,0,0,0,0,0,0,0,0,0,0,0,0,0,0,0,0,0,0,0,0,0,0,0,0,0,0,0,0,0,0,0,0,0,0,0,0,0,0,0,0,0,0,0,0.2801,0.2802,0,0.2837,0.2836,0.2836,0.2815,0.2815,0.2816,0.2816,0.291,0.2912,0.2914,0,0,0,0,0,0,0,0,0,0,0,0,0,0.2673,0.2674,0.2801,0.2802,0.2804,0.2837,0.2836,0.2836,0.2815,0.2816,0.2816,0.2816,0.2909,0.2912,0.2914,0,0,0,0,0,0,0,0,0,0,0,0,0,0.2708,0.2675,0.28,0.2808,0.281,0.2837,0.2836,0.2835,0.2815,0.2816,0.2816,0.2816,0.2908,0.2911,0.2915,0.2929,0,0,0.2925,0.2927,0,0,0,0,0,0,0,0,0.2706,0.2711,0.2805,0.2807,0.281,0.2834,0.2827,0.2874,0.2815,0.2799,0.2816,0.2816,0.2898,0.2903,0.2889,0.2934,0.2938,0.2926,0.2928,0.2929,0.293,0,0,0,0,0,0,0,0.2703,0.2709,0.2801,0.2807,0.281,0.2797,0.2801,0.2834,0.2837,0.28,0.2802,0.2828,0.2898,0.2885,0.2891,0.2939,0.2926,0.2929,0.2931,0.2932,0.307,0.3071,0,0,0,0,0,0,0.2728,0.2707,0.28,0.2804,0.2773,0.28,0.2804,0.2815,0.2835,0.2842,0.2827,0.2827,0.2879,0.2887,0.2895,0.2997,0.2929,0.2932,0.2934,0.3068,0.307,0.3072,0,0,0,0,0,0,0.2725,0.2735,0.2799,0.2768,0.2777,0.2803,0.2815,0.2816,0.2826,0.2858,0.2863,0.2842,0.288,0.289,0.2941,0.2997,0.2934,0.2937,0.3066,0.3069,0.3071,0.3148,0,0,0,0,0,0,0.2721,0.2733,0.2748,0.2769,0.278,0.2832,0.2816,0.2817,0.2847,0.2846,0.2872,0.2879,0.2881,0.2936,0.2945,0.3001,0.294,0.3064,0.3068,0.307,0.3144,0.3153,0.3161,0,0,0,0,0,0.2716,0.2748,0.2747,0.276,0.2799,0.2834,0.2837,0.2847,0.2847,0.2855,0.2874,0.2879,0.2961,0.294,0.295,0.3009,0.3063,0.3067,0.307,0.314,0.3151,0.3161,0,0,0,0,0,0,0.2709,0.2751,0.275,0.2795,0.2819,0.2836,0.2857,0.2863,0.2878,0.2885,0.2897,0.2906,0.2976,0.2976,0.2951,0.3055,0.3015,0.3021,0.3065,0.3076,0.3084,0.3125,0.2943,0,0,0,0,0,0.2714,0.2735,0.2776,0.2806,0.2826,0.284,0.2858,0.2868,0.2892,0.2897,0.292,0.295,0.2994,0.302,0.3049,0.3105,0.3122,0.3148,0.3157,0.3165,0.3204,0.3281,0.3301,0.3084,0.3084,0.3084,0,0,0.2716,0.2747,0.2756,0.2804,0.282,0.2857,0.2848,0.2888,0.292,0.2911,0.296,0.2986,0.3015,0.3076,0.3108,0.3087,0.3225,0.3169,0.3175,0.3211,0.3287,0.3309,0.3328,0.3086,0.3086,0.3085,0,0,0.2733,0.2762,0.2783,0.2812,0.2861,0.2882,0.2903,0.2936,0.2952,0.3004,0.3012,0.3071,0.3121,0.3157,0.3182,0.3258,0.327,0.3269,0.3352,0.3426,0.3445,0.3462,0.3469,0.3487,0.3272,0.3272,0.3272,0,0.2721,0.2774,0.2796,0.2832,0.2873,0.29,0.2944,0.2965,0.3009,0.3051,0.3034,0.3158,0.3165,0.3276,0.3296,0.3283,0.331,0.3309,0.344,0.3458,0.3474,0.3478,0.3496,0.3276,0.3276,0.3276,0.3275,0,0.2764,0.2804,0.2829,0.288,0.2921,0.2968,0.3019,0.3058,0.3093,0.3133,0.3248,0.327,0.3348,0.3361,0.3353,0.3486,0.3458,0.3442,0.3417,0.3501,0.3498,0.3516,0.3282,0.3281,0.328,0.3279,0,0,0.2731,0.2831,0.284,0.288,0.2958,0.2999,0.3068,0.3157,0.3232,0.3286,0.3402,0.3468,0.3502,0.3534,0.3545,0.3614,0.3716,0.3589,0.3591,0.3602,0.3854,0.3697,0.37,0.3739,0.3743,0.3747,0.3789,0,0.275,0.2841,0.2884,0.2969,0.3029,0.308,0.3178,0.3261,0.3308,0.3422,0.3497,0.3604,0.3561,0.362,0.3684,0.3732,0.3776,0.3704,0.3767,0.3768,0.3626,0.3721,0.3455,0.3461,0.3806,0.3809,0.3811,0,0.2787,0.2849,0.2943,0.307,0.3105,0.3162,0.3308,0.3376,0.3527,0.3593,0.3694,0.3744,0.3873,0.3816,0.394,0.3906,0.3889,0.3904,0.3906,0.3759,0.3647,0.3441,0.348,0.384,0.3838,0.3836,0.3834,0,0.2798,0.2894,0.2979,0.3014,0.3161,0.3219,0.3298,0.3439,0.3539,0.3685,0.3766,0.3921,0.3995,0.4058,0.4032,0.402,0.4144,0.4114,0.395,0.3935,0.3721,0.368,0.4196,0.4196,0.4195,0.4195,0.4195,0,0.2832,0.2892,0.2992,0.3037,0.3168,0.3256,0.3386,0.3486,0.3671,0.3771,0.3847,0.3949,0.4067,0.4114,0.4105,0.4069,0.4183,0.3997,0.3963,0.373,0.3691,0.4036,0.4017,0.4197,0.4196,0.4196,0.4196,0,0.2857,0.2908,0.2987,0.3122,0.3174,0.3254,0.3427,0.3495,0.3681,0.3795,0.386,0.4034,0.4067,0.4095,0.4183,0.412,0.4127,0.406,0.3741,0.3669,0.3852,0.3837,0.3943,0.3938,0.3934,0.3931,0.3928,0,0.2884,0.2933,0.304,0.3068,0.3118,0.3238,0.3309,0.3493,0.3537,0.3801,0.3836,0.3966,0.3946,0.4008,0.3973,0.3922,0.3994,0.3628,0.3562,0.3885,0.3841,0.3831,0.3821,0.3289,0.3281,0.3275,0.327,0,0.2902,0.293,0.2987,0.3045,0.3066,0.3154,0.3244,0.3307,0.3469,0.3576,0.3688,0.3733,0.3768,0.3634,0.3583,0.3525,0.3632,0.3496,0.3964,0.3382,0.3269,0.3225,0.3237,0.3214,0.3219,0.3224,0.3227,0.3229,0.2886,0.2905,0.2929,0.2987,0.2998,0.3018,0.3014,0.3073,0.3147,0.3217,0.3394,0.3341,0.339,0.3188,0.3089,0.3044,0.3279,0.3154,0.3174,0.3201,0.3106,0.2992,0.2863,0.2867,0.287,0.2872,0.2875,0,0.2802,0.2842,0.2877,0.2857,0.2801,0.2917,0.2923,0.2836,0.2774,0.2884,0.2922,0.2682,0.2613,0.2662,0.2525,0.2525,0.2516,0.2416,0.24,0.2458,0.251,0.238,0.1944,0.1941,0.1938,0.1935,0,0,0.2754,0.2717,0.2735,0.2627,0.2672,0.2573,0.2554,0.2401,0.2388,0.2298,0.2297,0.2464,0.2584,0.2223,0.219,0.2053,0.2232,0.1969,0.2722,0.2763,0.281,0.2949,0.2815,0,0,0,0,0]},{"header":{"parameterUnit":"m.s-1","parameterCategory":2,"la1":30.2991,"la2":30.254,"lo1":-89.0895,"lo2":-89.0444,"dy":0.0017,"dx":0.0017,"nx":28,"ny":28,"refTime":"2024-08-17T03:00:00:Z","depth":"2","parameterNumber":3,"parameterNumberName":"V-component_of_CURRENTS"},"data":[0,0,0,0,0,0,0,0,0,0,0,0,0,0,0,0,0,0,0,0,0,0,0,0,0,0,0,0,0,0,0,0,0,0,0,0,0,0,0,0,0,0,0,0,0,0,0,0,0,0,0,0,0,0,0,0,0,0,-0.0054,-0.0054,0,-0.01,-0.01,-0.0101,-0.0137,-0.0138,-0.0138,-0.0138,-0.021,-0.0212,-0.0213,0,0,0,0,0,0,0,0,0,0,0,0,0,-0.0039,-0.0039,-0.0053,-0.0054,-0.0055,-0.01,-0.01,-0.0101,-0.0137,-0.0138,-0.0138,-0.0138,-0.021,-0.0212,-0.0214,0,0,0,0,0,0,0,0,0,0,0,0,0,-0.0062,-0.0039,-0.0053,-0.0078,-0.008,-0.01,-0.01,-0.0101,-0.0137,-0.0138,-0.0138,-0.0138,-0.0209,-0.0211,-0.0214,-0.022,0,0,-0.0221,-0.0222,0,0,0,0,0,0,0,0,-0.006,-0.0062,-0.0074,-0.0076,-0.0079,-0.0113,-0.0122,-0.0142,-0.0137,-0.0116,-0.0138,-0.0139,-0.0179,-0.0184,-0.0192,-0.0223,-0.0226,-0.0221,-0.0223,-0.0224,-0.0225,0,0,0,0,0,0,0,-0.0059,-0.0061,-0.0072,-0.0074,-0.0077,-0.0101,-0.0104,-0.0126,-0.0145,-0.0118,-0.0121,-0.0125,-0.0181,-0.019,-0.0194,-0.0227,-0.0221,-0.0224,-0.0225,-0.0226,-0.0255,-0.0254,0,0,0,0,0,0,-0.0049,-0.0059,-0.0071,-0.0074,-0.007,-0.0101,-0.0104,-0.0102,-0.0145,-0.0151,-0.0124,-0.0126,-0.0185,-0.0191,-0.0197,-0.0176,-0.0224,-0.0226,-0.0228,-0.0256,-0.0255,-0.0254,0,0,0,0,0,0,-0.0048,-0.0049,-0.0069,-0.0068,-0.0072,-0.01,-0.0097,-0.0103,-0.011,-0.0149,-0.0157,-0.0125,-0.0186,-0.0194,-0.0206,-0.018,-0.0227,-0.023,-0.0257,-0.0255,-0.0254,-0.0153,0,0,0,0,0,0,-0.0048,-0.0049,-0.0043,-0.0066,-0.0071,-0.0069,-0.0097,-0.0103,-0.0111,-0.0114,-0.0153,-0.016,-0.0187,-0.0202,-0.0209,-0.0184,-0.0232,-0.0257,-0.0256,-0.0255,-0.0157,-0.0149,-0.0142,0,0,0,0,0,-0.0047,-0.003,-0.0042,-0.0044,-0.0062,-0.0068,-0.0073,-0.0096,-0.0111,-0.0105,-0.0131,-0.0159,-0.0199,-0.0204,-0.0211,-0.0187,-0.0258,-0.0256,-0.0255,-0.0161,-0.0151,-0.0142,0,0,0,0,0,0,-0.0019,-0.0033,-0.0047,-0.0035,-0.0048,-0.0074,-0.0071,-0.009,-0.0107,-0.0108,-0.015,-0.0159,-0.0162,-0.0191,-0.0195,-0.0193,-0.0233,-0.0233,-0.0159,-0.0149,-0.0142,-0.0115,-0.0234,0,0,0,0,0,-0.0011,-0.0001,-0.0023,-0.0012,-0.0017,-0.0045,-0.0051,-0.0064,-0.0083,-0.0091,-0.0121,-0.0148,-0.0162,-0.0168,-0.0193,-0.0189,-0.0228,-0.018,-0.0171,-0.0164,-0.0149,-0.0176,-0.0168,-0.0249,-0.0249,-0.0249,0,0,0.0001,-0.0003,0.0,-0.0006,-0.0019,-0.0009,-0.0049,-0.0048,-0.0036,-0.0096,-0.0092,-0.0125,-0.0158,-0.0153,-0.0156,-0.0171,-0.0167,-0.0162,-0.0156,-0.0144,-0.0173,-0.0165,-0.0158,-0.0248,-0.0248,-0.0248,0,0,0.0037,0.0028,0.0047,0.0043,0.0033,0.0022,0.0025,0.0002,-0.0007,-0.0008,-0.0045,-0.0059,-0.0089,-0.01,-0.011,-0.0074,-0.0129,-0.0084,-0.0014,-0.0039,-0.0032,-0.0027,-0.0086,-0.0086,-0.0073,-0.0073,-0.0073,0,0.0048,0.0076,0.0051,0.007,0.008,0.0041,0.0069,0.0057,0.0033,0.0042,0.0006,-0.0018,-0.006,-0.0033,-0.0026,-0.0054,-0.0089,-0.0044,-0.0027,-0.0022,-0.0018,-0.008,-0.0082,-0.0068,-0.0068,-0.0069,-0.0069,0,0.0097,0.0121,0.0134,0.015,0.0154,0.0175,0.0158,0.016,0.0141,0.0134,0.0142,0.0088,0.008,0.0061,0.0026,0.0047,0.0004,-0.0018,-0.0046,-0.0003,-0.0072,-0.0076,-0.0061,-0.0062,-0.0064,-0.0065,0,0,0.0126,0.0162,0.0169,0.0199,0.0203,0.0219,0.0241,0.0262,0.0291,0.0259,0.0306,0.0256,0.0228,0.0213,0.0168,0.0143,0.0118,0.0083,0.0079,0.0033,0.0041,-0.001,-0.002,0.0105,0.0105,0.0106,-0.0026,0,0.0175,0.0241,0.0242,0.0311,0.0345,0.0331,0.0382,0.0395,0.0368,0.0398,0.0364,0.0382,0.0288,0.0294,0.0252,0.0168,0.0117,0.0154,-0.0002,-0.0007,-0.0048,-0.0022,0.0018,-0.0097,-0.003,-0.0031,-0.0031,0,0.0227,0.0271,0.0349,0.0427,0.0444,0.0482,0.0538,0.0567,0.0591,0.0584,0.0572,0.0535,0.0515,0.0425,0.0288,0.0319,0.0182,0.0096,0.0089,0.0009,-0.0062,-0.0126,-0.0106,-0.0038,-0.0038,-0.0037,-0.0037,0,0.0277,0.0347,0.0421,0.0441,0.0521,0.0564,0.0606,0.0633,0.0691,0.0696,0.0714,0.0681,0.0675,0.0529,0.0324,0.0314,0.0158,0.0118,-0.0066,-0.0074,-0.0086,-0.0094,0.0001,0.0001,0.0001,0.0002,0.0002,0,0.0334,0.0391,0.0457,0.05,0.0616,0.0644,0.0742,0.0766,0.0845,0.0905,0.0816,0.0833,0.0701,0.0584,0.0381,0.0149,0.0189,-0.0049,-0.0099,-0.0054,-0.0057,-0.0039,-0.0042,-0.0003,-0.0002,-0.0001,-0.0,0,0.037,0.0412,0.0489,0.0589,0.0642,0.0709,0.0848,0.0879,0.0954,0.1013,0.1038,0.0997,0.0824,0.0624,0.0403,0.0226,0.0011,-0.0099,-0.0052,-0.0093,-0.0225,-0.0221,-0.0296,-0.0298,-0.03,-0.0302,-0.0304,0,0.0384,0.043,0.0551,0.0579,0.062,0.0735,0.0797,0.0928,0.0982,0.1076,0.1113,0.1021,0.0918,0.0582,0.0303,-0.0028,-0.0075,-0.0219,-0.0233,-0.0209,-0.0249,-0.0242,-0.0235,-0.0228,-0.0229,-0.023,-0.023,0,0.0366,0.0407,0.0454,0.0584,0.063,0.0727,0.085,0.0967,0.109,0.1173,0.1242,0.1195,0.0871,0.0609,0.0195,-0.0033,-0.0147,-0.0246,-0.021,-0.0155,-0.0154,-0.0191,-0.0185,-0.0236,-0.0235,-0.0235,-0.0235,-0.0235,0.0316,0.0331,0.0415,0.0531,0.0601,0.0728,0.0844,0.097,0.1161,0.1338,0.1307,0.1249,0.0956,0.0447,0.0101,-0.0234,-0.024,-0.0357,-0.0351,-0.0345,-0.0308,-0.0311,-0.0418,-0.0418,-0.0419,-0.0419,-0.0419,0,0.0256,0.0284,0.0359,0.0504,0.0613,0.0684,0.0883,0.1014,0.123,0.1347,0.1437,0.1144,0.0838,0.0481,-0.0007,-0.0319,-0.0319,-0.0427,-0.034,-0.0333,-0.0327,-0.0286,-0.0393,-0.0393,-0.0394,-0.0394,0,0,0.0209,0.0246,0.0318,0.0498,0.0618,0.0791,0.0917,0.1107,0.1284,0.1423,0.1454,0.1396,0.0958,0.0609,0.0189,-0.0084,-0.0134,-0.015,-0.0141,0.0019,0.003,-0.0264,-0.0191,0,0,0,0,0]}],[{"header":{"parameterUnit":"m.s-1","parameterCategory":2,"la1":30.2991,"la2":30.254,"lo1":-89.0895,"lo2":-89.0444,"dy":0.0017,"dx":0.0017,"nx":28,"ny":28,"refTime":"2024-08-17T03:00:00:Z","depth":"4","parameterNumber":2,"parameterNumberName":"U-component_of_CURRENTS"},"data":[0,0,0,0,0,0,0,0,0,0,0,0,0,0,0,0,0,0,0,0,0,0,0,0,0,0,0,0,0,0,0,0,0,0,0,0,0,0,0,0,0,0,0,0,0,0,0,0,0,0,0,0,0,0,0,0,0,0,0.1472,0.1472,0,0.1544,0.1545,0.1546,0.1612,0.1613,0.1613,0.1614,0.1676,0.1677,0.1678,0,0,0,0,0,0,0,0,0,0,0,0,0,0.1399,0.14,0.1471,0.1472,0.1473,0.1544,0.1545,0.1546,0.1612,0.1613,0.1614,0.1615,0.1676,0.1677,0.1678,0,0,0,0,0,0,0,0,0,0,0,0,0,0.1447,0.14,0.1471,0.1515,0.1519,0.1544,0.1545,0.1546,0.1612,0.1613,0.1614,0.1615,0.1675,0.1677,0.1678,0.1663,0,0,0.1682,0.1683,0,0,0,0,0,0,0,0,0.1444,0.1449,0.1507,0.1512,0.1517,0.157,0.1542,0.1585,0.1611,0.1577,0.1614,0.1616,0.1638,0.1643,0.1654,0.1666,0.1668,0.1682,0.1683,0.1684,0.1684,0,0,0,0,0,0,0,0.144,0.1447,0.15,0.1508,0.1514,0.1533,0.1541,0.155,0.16,0.158,0.1585,0.1592,0.1641,0.1653,0.1656,0.1669,0.1682,0.1683,0.1684,0.1685,0.1818,0.182,0,0,0,0,0,0,0.143,0.1443,0.1498,0.1503,0.1482,0.1534,0.1543,0.1552,0.16,0.1609,0.1591,0.1595,0.165,0.1655,0.1659,0.1769,0.1684,0.1685,0.1686,0.1815,0.1818,0.1821,0,0,0,0,0,0,0.1428,0.1434,0.1495,0.1474,0.1484,0.1533,0.1543,0.1553,0.16,0.1609,0.1618,0.1633,0.1651,0.1657,0.171,0.1767,0.1686,0.1687,0.1812,0.1816,0.182,0.1908,0,0,0,0,0,0,0.1425,0.1433,0.1452,0.1474,0.1484,0.1533,0.1543,0.1553,0.16,0.1607,0.1646,0.1652,0.1652,0.1709,0.1712,0.1767,0.1688,0.1808,0.1814,0.1818,0.1902,0.1915,0.1926,0,0,0,0,0,0.1422,0.144,0.1452,0.146,0.1503,0.1534,0.1542,0.158,0.1601,0.1627,0.1665,0.1652,0.1744,0.1712,0.1715,0.1772,0.1806,0.1812,0.1818,0.1897,0.1912,0.1926,0,0,0,0,0,0,0.142,0.1449,0.1463,0.149,0.152,0.1545,0.1575,0.1598,0.1648,0.1667,0.1676,0.1684,0.1759,0.175,0.1714,0.1828,0.1777,0.1784,0.1836,0.185,0.1862,0.1866,0.1689,0,0,0,0,0,0.1425,0.145,0.1475,0.1501,0.1518,0.1552,0.1576,0.1603,0.164,0.1665,0.1699,0.1738,0.178,0.1803,0.1834,0.1881,0.1873,0.1925,0.1937,0.1947,0.1955,0.1995,0.2011,0.1841,0.1841,0.1841,0,0,0.1426,0.1451,0.1463,0.1504,0.1531,0.1567,0.1571,0.1618,0.1667,0.1661,0.1752,0.1782,0.1804,0.1874,0.1906,0.1876,0.1992,0.1955,0.1963,0.1965,0.2003,0.2019,0.2033,0.1845,0.1844,0.1844,0,0,0.1441,0.1469,0.1495,0.1525,0.1575,0.1599,0.1619,0.167,0.1718,0.1787,0.1814,0.1879,0.1931,0.197,0.199,0.2082,0.2058,0.21,0.2159,0.2198,0.2212,0.2224,0.2232,0.2244,0.2101,0.2101,0.2101,0,0.1448,0.1482,0.1508,0.1545,0.158,0.1617,0.1659,0.1706,0.1778,0.1822,0.1831,0.1956,0.1979,0.2065,0.2111,0.2111,0.2116,0.2099,0.2213,0.2224,0.2235,0.224,0.2252,0.2106,0.2106,0.2105,0.2105,0,0.1474,0.1516,0.1536,0.1597,0.1638,0.1681,0.174,0.1805,0.1864,0.191,0.2023,0.2068,0.214,0.2167,0.217,0.2271,0.2245,0.2225,0.217,0.2257,0.2257,0.2268,0.2113,0.2112,0.211,0.2109,0,0,0.1453,0.1538,0.155,0.1592,0.1674,0.1709,0.18,0.1884,0.1947,0.2038,0.2127,0.2225,0.226,0.2287,0.2311,0.235,0.2437,0.233,0.2329,0.2327,0.251,0.2344,0.2339,0.2439,0.2442,0.2444,0.2477,0,0.1472,0.1542,0.159,0.1674,0.1712,0.1787,0.1859,0.1946,0.2025,0.212,0.2199,0.2298,0.2302,0.2359,0.2403,0.2436,0.2472,0.2429,0.2435,0.2435,0.2269,0.2349,0.2452,0.2485,0.2488,0.2489,0.2491,0,0.147,0.153,0.1604,0.1712,0.1739,0.1804,0.193,0.2006,0.2133,0.2192,0.23,0.2367,0.2482,0.2462,0.2555,0.253,0.2537,0.2542,0.2543,0.2363,0.2289,0.2383,0.251,0.2508,0.2507,0.2505,0.2504,0,0.1421,0.1536,0.1601,0.1638,0.1762,0.1833,0.1917,0.2036,0.21,0.2266,0.2318,0.2453,0.2527,0.258,0.2615,0.2605,0.2674,0.2652,0.2503,0.2491,0.2588,0.2575,0.271,0.271,0.271,0.271,0.2709,0,0.1394,0.1455,0.1593,0.163,0.1718,0.1828,0.193,0.202,0.2148,0.2213,0.2365,0.2419,0.2564,0.2622,0.2641,0.2595,0.2699,0.2525,0.2496,0.2624,0.2615,0.2595,0.2581,0.2711,0.271,0.271,0.271,0,0.1299,0.1397,0.1466,0.1622,0.1689,0.1746,0.1915,0.1965,0.2112,0.2206,0.2272,0.2419,0.2507,0.2598,0.2676,0.2599,0.2596,0.2549,0.2674,0.265,0.238,0.2372,0.2398,0.2393,0.2388,0.2384,0.2381,0,0.1251,0.1275,0.1427,0.1464,0.1543,0.1668,0.1734,0.1919,0.198,0.217,0.2193,0.2348,0.2434,0.2398,0.2505,0.2534,0.2504,0.2469,0.244,0.2383,0.2354,0.2352,0.2349,0.2374,0.2373,0.2371,0.237,0,0.1132,0.1181,0.1232,0.1324,0.141,0.1487,0.1628,0.1669,0.1874,0.2017,0.2084,0.2151,0.2226,0.23,0.2335,0.2346,0.2481,0.2421,0.2431,0.2403,0.2354,0.2329,0.2331,0.2354,0.2357,0.2358,0.2359,0,0.1021,0.101,0.1083,0.1161,0.1242,0.1296,0.1397,0.151,0.1613,0.1868,0.1876,0.2039,0.2195,0.2199,0.2226,0.2238,0.2216,0.2134,0.2158,0.2177,0.2091,0.1996,0.187,0,0,0,0,0,0.0897,0.0893,0.0929,0.1006,0.1071,0.1153,0.1311,0.1423,0.1657,0.1652,0.1775,0.1854,0.1924,0.1997,0.1972,0.2124,0.2213,0.208,0.2127,0.2266,0.2285,0.2206,0,0,0,0,0,0,0.0818,0.0826,0.0875,0.0867,0.0904,0.0986,0.1089,0.1244,0.1283,0.1512,0.1568,0.1721,0.1825,0.1923,0.1928,0.1954,0.194,0.2192,0.2187,0.2256,0.2273,0.2287,0.2213,0,0,0,0,0]},{"header":{"parameterUnit":"m.s-1","parameterCategory":2,"la1":30.2991,"la2":30.254,"lo1":-89.0895,"lo2":-89.0444,"dy":0.0017,"dx":0.0017,"nx":28,"ny":28,"refTime":"2024-08-17T03:00:00:Z","depth":"4","parameterNumber":3,"parameterNumberName":"V-component_of_CURRENTS"},"data":[0,0,0,0,0,0,0,0,0,0,0,0,0,0,0,0,0,0,0,0,0,0,0,0,0,0,0,0,0,0,0,0,0,0,0,0,0,0,0,0,0,0,0,0,0,0,0,0,0,0,0,0,0,0,0,0,0,0,-0.0003,-0.0003,0,-0.003,-0.003,-0.0031,-0.0061,-0.0061,-0.0062,-0.0062,-0.0121,-0.0122,-0.0123,0,0,0,0,0,0,0,0,0,0,0,0,0,-0.0006,-0.0005,-0.0003,-0.0003,-0.0004,-0.003,-0.003,-0.0031,-0.0061,-0.0061,-0.0062,-0.0062,-0.012,-0.0122,-0.0123,0,0,0,0,0,0,0,0,0,0,0,0,0,-0.0016,-0.0005,-0.0003,-0.0021,-0.0023,-0.003,-0.003,-0.0031,-0.0061,-0.0061,-0.0062,-0.0063,-0.012,-0.0121,-0.0123,-0.0122,0,0,-0.0129,-0.0129,0,0,0,0,0,0,0,0,-0.0015,-0.0016,-0.0018,-0.002,-0.0022,-0.0042,-0.0053,-0.0063,-0.0061,-0.0047,-0.0062,-0.0063,-0.0097,-0.01,-0.0104,-0.0125,-0.0127,-0.0129,-0.013,-0.0131,-0.0131,0,0,0,0,0,0,0,-0.0015,-0.0015,-0.0014,-0.0019,-0.0021,-0.0038,-0.004,-0.0055,-0.0069,-0.0048,-0.005,-0.0052,-0.0098,-0.0102,-0.0106,-0.0128,-0.0129,-0.013,-0.0131,-0.0132,-0.0188,-0.0188,0,0,0,0,0,0,-0.0008,-0.0014,-0.0013,-0.0015,-0.002,-0.0037,-0.004,-0.0036,-0.0068,-0.0073,-0.0052,-0.0054,-0.0099,-0.0104,-0.0108,-0.0122,-0.0131,-0.0132,-0.0133,-0.0188,-0.0188,-0.0189,0,0,0,0,0,0,-0.0008,-0.0008,-0.0012,-0.0015,-0.0017,-0.0036,-0.0032,-0.0036,-0.0042,-0.0071,-0.0077,-0.0054,-0.01,-0.0106,-0.0124,-0.0124,-0.0133,-0.0135,-0.0187,-0.0188,-0.0188,-0.0142,0,0,0,0,0,0,-0.0008,-0.0007,-0.0002,-0.0015,-0.0017,-0.0014,-0.0031,-0.0036,-0.0042,-0.0045,-0.0075,-0.0081,-0.0101,-0.0122,-0.0126,-0.0127,-0.0136,-0.0187,-0.0187,-0.0188,-0.0143,-0.0141,-0.0139,0,0,0,0,0,-0.0008,0.0005,-0.0001,-0.0001,-0.0008,-0.0014,-0.0016,-0.0033,-0.0042,-0.0041,-0.0064,-0.008,-0.013,-0.0123,-0.0128,-0.0129,-0.0186,-0.0187,-0.0188,-0.0143,-0.0141,-0.0139,0,0,0,0,0,0,0.0009,0.0003,-0.0004,0.0007,-0.0003,-0.0019,-0.0017,-0.0029,-0.0046,-0.0048,-0.0079,-0.0086,-0.0106,-0.0125,-0.0116,-0.0151,-0.0163,-0.0165,-0.0128,-0.0126,-0.0124,-0.0124,-0.0138,0,0,0,0,0,0.0015,0.0024,0.0011,0.002,0.0017,0.0,-0.0004,-0.0013,-0.003,-0.0037,-0.0061,-0.0088,-0.0113,-0.0124,-0.0148,-0.0159,-0.019,-0.0168,-0.0166,-0.0164,-0.017,-0.0212,-0.0214,-0.0192,-0.0192,-0.0192,0,0,0.0023,0.0023,0.0026,0.0024,0.0016,0.0016,-0.0004,-0.0004,-0.0007,-0.0041,-0.0053,-0.008,-0.0116,-0.0133,-0.0144,-0.0148,-0.0186,-0.0165,-0.0163,-0.017,-0.0214,-0.0216,-0.0218,-0.0192,-0.0192,-0.0192,0,0,0.0044,0.0044,0.0055,0.005,0.0044,0.0033,0.0034,0.0018,0.0007,-0.0004,-0.0036,-0.0063,-0.0093,-0.0122,-0.014,-0.0143,-0.0176,-0.0152,-0.0138,-0.0179,-0.0181,-0.0183,-0.0218,-0.0223,-0.0148,-0.0148,-0.0148,0,0.0051,0.0064,0.0056,0.0064,0.0063,0.0042,0.0049,0.0038,0.0016,0.0003,-0.0003,-0.0065,-0.009,-0.0124,-0.0127,-0.0138,-0.0166,-0.0138,-0.0175,-0.0178,-0.0181,-0.0216,-0.0223,-0.0146,-0.0146,-0.0146,-0.0147,0,0.0076,0.0085,0.0092,0.0094,0.0093,0.0097,0.0081,0.0073,0.0057,0.0037,0.0002,-0.0036,-0.0074,-0.0087,-0.0106,-0.0142,-0.0156,-0.0167,-0.0176,-0.018,-0.0217,-0.0225,-0.0143,-0.0144,-0.0144,-0.0145,0,0,0.0088,0.0105,0.0106,0.0116,0.0109,0.0114,0.0108,0.009,0.0083,0.0052,0.0033,-0.0016,-0.0042,-0.0066,-0.0097,-0.0133,-0.0173,-0.0155,-0.0158,-0.0181,-0.0262,-0.0236,-0.0243,-0.0188,-0.0189,-0.019,-0.0276,0,0.0104,0.0126,0.013,0.0151,0.0158,0.0145,0.0141,0.0124,0.0102,0.0079,0.0028,0.0003,-0.0032,-0.0043,-0.0089,-0.015,-0.0193,-0.0148,-0.0263,-0.0266,-0.0236,-0.0251,-0.0194,-0.0283,-0.0284,-0.0286,-0.0287,0,0.0115,0.0134,0.0155,0.0177,0.018,0.0189,0.018,0.0177,0.0135,0.0119,0.0076,0.0038,-0.0019,-0.0041,-0.0159,-0.0128,-0.0195,-0.0246,-0.0251,-0.0251,-0.0255,-0.0282,-0.0302,-0.0301,-0.0299,-0.0298,-0.0298,0,0.0115,0.0147,0.0167,0.0174,0.0194,0.0203,0.0208,0.0182,0.0192,0.0146,0.0147,0.006,0.0032,-0.0066,-0.0165,-0.0165,-0.0294,-0.0306,-0.0352,-0.0351,-0.0368,-0.0365,-0.0399,-0.0399,-0.0399,-0.0399,-0.0399,0,0.0117,0.0138,0.0174,0.0187,0.0226,0.0224,0.0249,0.024,0.0231,0.0252,0.0173,0.0167,0.0024,-0.0059,-0.016,-0.0274,-0.0293,-0.0358,-0.0374,-0.0346,-0.034,-0.0374,-0.037,-0.0402,-0.0401,-0.0401,-0.04,0,0.0115,0.0126,0.0167,0.0206,0.0228,0.0256,0.031,0.0329,0.0306,0.0333,0.033,0.0241,0.0136,-0.0007,-0.0169,-0.0254,-0.037,-0.041,-0.0365,-0.0376,-0.0406,-0.0398,-0.0475,-0.0475,-0.0475,-0.0475,-0.0474,0,0.0118,0.0136,0.02,0.0245,0.0274,0.0322,0.0365,0.0369,0.0405,0.039,0.0414,0.0312,0.0242,0.0036,-0.0134,-0.0337,-0.0365,-0.0436,-0.0433,-0.0406,-0.0415,-0.0408,-0.0401,-0.0474,-0.0474,-0.0474,-0.0474,0,0.0153,0.017,0.0219,0.0302,0.0363,0.0431,0.0493,0.0525,0.0537,0.0517,0.0506,0.0389,0.0259,0.0069,-0.0096,-0.0241,-0.0395,-0.0436,-0.0438,-0.0435,-0.0406,-0.0414,-0.0407,-0.0474,-0.0474,-0.0474,-0.0474,0,0.0203,0.0244,0.0308,0.0378,0.0455,0.0527,0.0548,0.0602,0.0626,0.0612,0.0605,0.0454,0.035,0.0118,-0.0026,-0.0174,-0.0217,-0.0268,-0.0279,-0.0282,-0.0202,-0.0135,-0.0138,0,0,0,0,0,0.0261,0.0314,0.0388,0.0464,0.053,0.0568,0.0641,0.0653,0.0659,0.0678,0.0648,0.0539,0.0311,0.0193,0.0055,-0.0045,-0.0259,-0.0216,-0.0327,-0.0472,-0.0472,-0.0409,0,0,0,0,0,0,0.0308,0.0388,0.0404,0.0514,0.0569,0.065,0.0692,0.07,0.0707,0.0689,0.0573,0.0501,0.0276,0.0398,0.0051,0.0,-0.009,-0.0332,-0.0336,-0.0471,-0.0472,-0.0472,-0.0408,0,0,0,0,0]}]]